Location: Cactus School
(34.5700°N, 118.0931°W)
Time: 15:45:29
(UTC-08:00)

ISS - Pass Details

Date: 15 November 2017
Orbit: 402 x 407 km, 51.6° (Epoch: 24 November)

Event Time Altitude Azimuth Distance (km) Brightness Sun altitude
Exits shadow 05:11:22 13° 348° (NNW) 1,307 -1.5 -15.6°
Maximum altitude 05:13:24 21° 33° (NNE) 978 -1.7 -15.2°
Drops below altitude 10° 05:15:56 10° 84° (E) 1,449 0.2 -14.6°
Sets 05:18:21 0° 102° (ESE) 2,305 2.0 -14.2°
